Location: Goheenville
(40.9070°N, 79.3720°W)
Time: 12:32:03
(UTC-04:00)

Daily predictions for brighter satellites

Satellite Brightness Start Highest point End
(mag) Time Altitude Azimuth Time Altitude Azimuth Time Altitude Azimuth
BREEZE-M DEB (TANK) 4.5 20:58:14 10° WNW 21:02:15 63° SSW 21:16:02 10° SE
Cosmos 2056 Rocket 4.4 21:04:27 10° N 21:09:06 33° ENE 21:13:42 10° SE
USA 81 4.2 21:05:20 10° S 21:10:37 82° W 21:15:55 10° N
Envisat 3.0 21:06:01 10° SSE 21:11:03 71° ENE 21:16:08 10° N
DNEPR-1 R/B 3.9 21:10:30 10° NW 21:14:45 68° WSW 21:19:25 10° SSE
Lacrosse 5 rocket 4.5 21:14:02 10° N 21:14:56 10° N 21:15:51 10° NNE
SAR-Lupe-4 3.8 21:12:36 10° SSE 21:16:07 56° ENE 21:19:40 10° N
Cosmos 2082 Rocket 3.5 21:12:15 10° SE 21:16:08 19° E 21:20:00 10° NE
COSMOS 2406 3.9 21:13:48 10° SW 21:19:27 62° WNW 21:25:07 10° NNE
Okean 1-7 Rocket 3.7 21:18:34 10° S 21:22:55 56° E 21:27:22 10° NNE
Cosmos 1743 3.5 21:19:30 10° NNW 21:23:19 55° W 21:27:08 10° S
YAOGAN 6 3.1 21:20:20 10° SE 21:23:37 41° ENE 21:26:56 10° N
Okean 2 3.9 21:21:55 10° SSE 21:25:42 38° E 21:29:31 10° NNE
Cosmos 1606 Rocket 4.4 21:22:56 10° NNE 21:26:50 32° ENE 21:30:35 11° SE
Cosmos 1025 Rocket 3.0 21:26:48 10° S 21:30:59 60° E 21:35:12 10° NNE
SPOT 5 4.1 21:28:07 10° ESE 21:31:23 21° ENE 21:34:43 10° NNE
CZ-4B DEB 2.5 21:29:20 10° SSE 21:32:19 90° ESE 21:35:19 10° NNW
Meteor 1-15 Rocket 4.4 21:26:49 10° N 21:32:19 56° ENE 21:37:46 10° SSE
SAR-Lupe-1 4.0 21:28:47 10° SSE 21:32:21 78° ENE 21:35:58 10° N
Cosmos 1697 Rocket 4.2 21:29:02 10° N 21:33:22 22° NE 21:37:40 10° ESE
Cosmos 1726 Rocket 4.4 21:31:50 10° N 21:35:46 33° ENE 21:39:07 13° SE
Cosmos 405 3.0 21:34:09 10° N 21:37:43 89° W 21:41:15 10° S
Cosmos 2369 4.3 21:33:12 10° NNW 21:38:42 45° ENE 21:43:25 14° SE
USA 186 4.1 21:38:11 10° SSW 21:40:41 21° W 21:43:07 10° NW
Cosmos 1666 3.5 21:37:03 10° NNW 21:40:42 50° W 21:44:18 10° S
COSMOS 2487 3.3 21:38:01 10° SSE 21:41:10 30° ESE 21:44:21 10° NE
CENTAUR R/B 4.2 21:35:01 10° NW 21:42:25 41° WSW 21:50:05 10° S
Meteor 2-9 Rocket 4.4 21:39:51 10° NNW 21:45:23 76° W 21:51:02 10° S
ERS-1 Rocket 3.1 21:41:26 11° SSE 21:46:12 64° ENE 21:51:10 10° N
USA 245 4.2 21:47:12 14° E 21:47:42 14° ENE 21:49:04 10° NE
Cosmos 1833 Rocket 3.3 21:43:56 10° SSE 21:48:54 33° ESE 21:53:54 10° NE
Cosmos 1371 Rocket 4.1 21:43:48 10° NNW 21:49:09 83° WSW 21:54:08 11° SSE
Cosmos 1238 Rocket 4.3 21:44:01 10° S 21:50:46 78° W 21:57:08 10° N
ISS -1.3 21:48:32 10° W 21:51:19 25° NNW 21:54:07 10° NE
CRYOSAT 2 4.3 21:46:32 10° S 21:51:22 85° E 21:56:15 10° N
OAO 2 Rocket 4.1 21:47:02 10° WSW 21:51:30 35° SSW 21:54:39 17° SE
OE (NEXTSAT) 4.5 21:49:08 10° WNW 21:52:42 65° SSW 21:54:57 20° SE
Cosmos 2058 Rocket 3.7 21:51:29 10° N 21:55:41 41° ENE 21:58:30 19° SE
Meteor 1-29 4.5 21:58:50 10° N 22:01:59 37° WNW 22:05:06 10° SW
YAOGAN 11 4.3 22:02:04 20° SE 22:04:50 53° ENE 22:09:05 10° N
Cosmos 2181 Rocket 4.1 21:58:52 10° S 22:05:07 62° E 22:11:18 10° NNE
Cosmos 1437 Rocket 2.9 22:02:19 10° NNW 22:06:11 71° W 22:09:19 15° S
ASTEX 1 3.8 22:01:29 10° S 22:06:20 64° W 22:11:12 10° NNW
Cosmos 1939 Rocket 4.4 22:03:01 10° SSW 22:06:29 31° W 22:09:57 10° NNW
Intercosmos 24 4.2 22:04:39 10° NNW 22:08:17 57° W 22:11:24 13° S
Cosmos 1515 3.6 22:09:19 12° S 22:12:51 87° W 22:16:41 10° N
H-2A R/B 4.0 22:11:41 15° E 22:13:37 19° ENE 22:16:45 10° NNE
Cosmos 1980 Rocket 3.3 22:17:45 10° N 22:22:47 31° ENE 22:25:49 19° ESE
Cosmos 1626 Rocket 4.2 22:21:47 28° SE 22:23:09 36° E 22:27:07 10° NNE
ARGOS 3.1 22:20:51 22° SSE 22:24:29 82° ENE 22:29:56 10° NNW
TELKOM 3 3.2 22:31:07 10° WNW 22:33:33 86° SSW 22:33:54 65° SE
Cosmos 2228 2.9 22:29:28 10° N 22:33:46 87° W 22:35:49 30° S
Cosmos 2322 Rocket 4.3 22:30:42 10° N 22:34:08 16° NE 22:37:35 10° E
Cosmos 921 Rocket 3.6 22:30:10 10° NNW 22:34:31 53° WSW 22:37:02 23° S
Tiangong 2 1.4 22:35:11 10° WNW 22:38:20 62° N 22:39:21 37° ENE
SL-8 Rocket 4.0 22:34:00 10° N 22:40:19 86° E 22:44:11 25° S
H-2A R/B 1.9 22:38:01 32° SSE 22:40:21 71° ENE 22:45:25 10° N
Landsat 7 4.1 22:40:01 34° SE 22:41:50 54° ENE 22:46:29 10° N
Cosmos 1766 4.0 22:38:27 10° N 22:42:04 35° ENE 22:42:36 34° E
Cosmos 2366 rocket 3.9 22:41:03 10° N 22:47:13 72° E 22:50:17 31° SSE
CZ-3A R/B 2.6 22:48:58 10° W 22:51:03 20° NW 22:51:31 18° NNW
Lacrosse 5 rocket 3.9 22:52:31 10° NNW 22:55:52 19° NNE 22:59:14 10° ENE
Terra 2.1 22:55:30 40° ESE 22:56:51 53° ENE 23:01:30 10° N
Meteor 1-4 Rocket 2.6 22:54:09 10° NNW 22:57:42 66° W 22:58:16 55° SSW
Cosmos 1602 Rocket 3.4 22:57:24 42° S 22:58:50 88° E 23:03:10 10° N
Cosmos 2082 Rocket 2.7 22:54:06 10° SW 22:59:41 59° WNW 23:05:17 10° NNE
Cosmos 1269 Rocket 3.9 23:01:07 35° S 23:03:21 72° ESE 23:08:39 10° NNE
Cosmos 1420 Rocket 4.0 23:02:01 10° NNW 23:07:17 81° WSW 23:08:59 44° S
SPOT 5 3.9 23:07:21 23° SW 23:09:16 33° W 23:13:14 10° NNW
DMSP B5D2-2 4.0 23:04:21 10° NNE 23:09:40 87° ESE 23:11:58 35° SSW
Cosmos 1048 Rocket 3.8 23:08:12 34° SSW 23:10:28 86° ESE 23:15:41 10° NNE
Cosmos 1805 3.9 23:07:05 10° N 23:10:42 41° ENE 23:10:42 41° ENE
Meteor 2-14 Rocket 4.3 23:07:16 10° N 23:13:22 89° E 23:15:45 40° S
deb Chang Zheng 4 3.5 23:09:52 10° NNE 23:14:09 63° E 23:14:27 61° SE
Meteor 1-22 Rocket 4.2 23:12:04 10° NNW 23:17:22 69° W 23:19:20 39° SSW
Cosmos 1697 Rocket 3.0 23:12:14 10° NNW 23:17:43 57° WSW 23:19:38 38° SSW
Cosmos 1758 4.0 23:14:29 10° N 23:18:05 39° ENE 23:18:05 39° ENE
Cosmos 389 Rocket 3.9 23:16:07 10° NNE 23:18:31 27° NE 23:18:31 27° NE
Spot 4 4.2 23:21:37 46° ESE 23:22:22 51° ENE 23:27:03 10° N
Lacrosse 5 3.1 23:25:30 27° E 23:25:30 27° E 23:28:16 10° ENE
USA 267 4.2 23:18:40 10° ENE 23:22:58 27° ESE 23:22:58 27° ESE
CARTOSAT-1 3.5 23:24:03 64° SSW 23:24:36 77° WSW 23:28:57 10° NNW
Timation 2 Rocket 4.3 23:20:08 10° SW 23:26:28 66° WNW 23:32:36 10° NNE
Cosmos 2360 4.1 23:20:50 10° NNW 23:26:35 83° ENE 23:28:04 52° SSE
SL-16 R/B 3.1 23:22:35 10° N 23:27:50 37° ENE 23:29:33 30° E
Iridium 2 3.7 23:24:07 10° N 23:27:42 79° N 23:27:42 79° N
ISS -0.5 23:27:05 10° NNW 23:28:42 13° N 23:30:20 10° NNE
NOSS 3-1 (C) 4.5 23:23:11 10° NNW 23:30:33 53° NE 23:34:52 28° ESE
Cosmos 1833 Rocket 4.2 23:27:39 10° WSW 23:32:45 35° WNW 23:37:53 10° N
IGS 5A 3.5 23:32:35 63° SW 23:32:51 65° W 23:37:01 10° NNW
DELTA 2 DEB (DPAF) 4.3 23:34:36 57° E 23:34:51 58° ENE 23:39:16 10° N
SL-19 R/B 4.2 23:33:10 10° N 23:38:28 74° WNW 23:40:12 43° SSW
ATLAS CENTAUR R/B 2.5 23:35:21 10° NNW 23:38:30 30° NE 23:38:30 30° NE
Cosmos 1842 3.6 23:38:51 59° W 23:38:56 59° W 23:42:51 10° N
Cosmos 1271 Rocket 3.2 23:36:50 10° NNW 23:40:35 56° W 23:40:35 56° W
CZ-4C R/B 3.9 23:45:30 48° NNE 23:45:30 48° NNE 23:48:21 10° N
Cosmos 1758 Rocket 3.6 23:47:43 65° ENE 23:47:43 65° ENE 23:51:41 10° NNE
Cosmos 2251 Rocket 3.7 23:47:57 53° ESE 23:47:57 53° ESE 23:53:11 10° NNE
H-2A R/B 2.8 23:48:48 43° WSW 23:49:16 44° W 23:53:37 10° NNW
Cosmos 1733 4.3 23:45:50 10° N 23:48:41 36° NE 23:48:41 36° NE
Cosmos 1544 4.0 23:46:35 10° NNW 23:49:33 44° WNW 23:49:33 44° WNW
